Flag for Czech Republic Weather past 2 weeks in Plzen, Czech Republic

Now
63 °F

Passing clouds.


Feels Like: 63 °F
Forecast: 52 / 64 °F
Wind: 2 mph from West

Location: Kocelovice

Current Time: Aug 30, 2014 at 10:26:08 PM

Latest Report: Aug 30, 2014 at 9:00 PM


Visibility: 25 mi

Pressure: 30.04 "Hg

Humidity: 76%

Dew point: 55 °F

Location of PlzenLocation

Historic Weather in Plzen — Graph

°F

Plzen temperature yesterday

Maximum temperature yesterday: 71 °F (at 2:00 PM)
Minimum temperature yesterday: 47 °F (at 4:00 AM)
Average temperature yesterday: 58 °F

Past Weeks' High & Low Weather Summary

 TemperatureHumidityPressure
High72 °F (Aug 30, 3:00 PM)100% (Aug 21, 5:00 AM)30.16 "Hg (Aug 21, 5:00 AM)
Low40 °F (Aug 25, 6:00 AM)41% (Aug 28, 3:00 PM)29.70 "Hg (Aug 26, 2:00 PM)
Average56 °F79%29.98 "Hg
* Reported Aug 15 9:00 PM — Aug 30 9:00 PM, Plzen, Weather by CustomWeather, © 2014

Note: Actual official high and low records may vary slightly from our data, if they occured in-between our weather recording intervals... More about our weather records

Advertising

Plzen weather history for previous 24 hours

 ConditionsComfort  
Time TempWeatherWind HumidityBarometerVisibility
9:00 PM
Aug 30
63 °FPassing clouds.2 mph76%30.04 "Hg25 mi
8:00 PM65 °FPassing clouds.1 mph68%30.02 "Hg25 mi
7:00 PM68 °FScattered clouds.3 mph61%30.01 "Hg25 mi
6:00 PM70 °FPartly sunny.6 mph58%29.99 "Hg22 mi
5:00 PM72 °FOvercast.7 mph52%29.99 "Hg25 mi
4:00 PM71 °FOvercast.6 mph54%29.99 "Hg25 mi
3:00 PM72 °FOvercast.6 mph53%30.00 "Hg25 mi
2:00 PM69 °FOvercast.6 mph61%30.03 "Hg19 mi
1:00 PM71 °FPartly sunny.5 mph54%30.02 "Hg31 mi
12:00 PM68 °FPartly sunny.5 mph69%30.05 "Hg22 mi
11:00 AM66 °FPartly sunny.N/A81%30.05 "Hg15 mi
10:00 AM62 °FPartly sunny.N/A90%30.06 "Hg14 mi
9:00 AM57 °FFog.N/A95%30.07 "Hg3 mi
8:00 AM53 °FFog.N/A99%30.09 "Hg3 mi
7:00 AM51 °FFog.1 mph99%30.09 "Hg5 mi
6:00 AM52 °FCool.N/A100%30.08 "Hg4 mi
5:00 AM52 °FDuststorm.2 mph99%30.08 "Hg1 mi
4:00 AM50 °FCool.2 mph100%30.09 "Hg2 mi
3:00 AM53 °FDuststorm.2 mph99%30.09 "Hg0 mi
2:00 AM54 °FDuststorm.N/A99%30.07 "Hg1 mi
1:00 AM55 °FCool.1 mph99%30.08 "Hg2 mi
12:00 AM56 °FCool.N/A99%30.06 "Hg6 mi
11:00 PM
Aug 29
56 °FFog.1 mph99%30.06 "Hg4 mi
Weather by CustomWeather, © 2014

See weather overviewHow to use our weather pages